Tracking 26006 objects as of 17-Aug-2022
HD Live streaming from Space Station
objects crossing your sky now

RESURS O1 DEB

Track RESURS O1 DEB now!
10-day predictions


NORAD ID: 46516
Int'l Code: 1994-074BC
Perigee: 563.2 km
Apogee: 573.7 km
Inclination: 97.9 °
Period: 95.9 minutes
Semi major axis: 6939 km
RCS: Unknown
Launch date: November 4, 1994
Source: Commonwealth of Independent States (former USSR) (CIS)
Launch site: TYURATAM MISSILE AND SPACE COMPLEX (TTMTR)

Note: This is SATELLITE DEBRIS
aabbcc
Your satellite tracking list
Your tracking list is empty




NASA's NSSDC Master Catalog

Two Line Element Set (TLE):
1 46516U 94074BC  22229.36354427  .00037456  00000-0  28620-2 0  9992
2 46516  97.8555 281.8072 0007525  21.4995 338.6543 15.01813840105717
Source of the keplerian elements: AFSPC